[[{"header":{"parameterUnit":"m.s-1","parameterCategory":1,"la1":30.2991,"la2":30.254,"lo1":-89.0895,"lo2":-89.0444,"dy":0.0017,"dx":0.0017,"nx":28,"ny":28,"refTime":"2024-06-27T03:00:00:Z","depth":0,"parameterNumber":2,"parameterNumberName":"U-component_of_WINDS"},"data":[0,0,0,0,0,0,0,0,0,0,0,0,0,0,0,0,0,0,0,0,0,0,0,0,0,0,0,0,0,0,0,0,0,0,0,0,0,0,0,0,0,0,0,0,0,0,0,0,0,0,0,0,0,0,0,0,0,0,6.8797,6.8799,0,6.8989,6.8991,6.8993,6.892,6.8915,6.8911,6.8907,6.9109,6.9118,6.9127,0,0,0,0,0,0,0,0,0,0,0,0,0,6.837,6.8378,6.8797,6.8799,6.8802,6.8989,6.8991,6.8994,6.8921,6.8915,6.891,6.8905,6.9106,6.9117,6.9128,0,0,0,0,0,0,0,0,0,0,0,0,0,6.8558,6.8381,6.8797,6.8788,6.8789,6.8988,6.8991,6.8995,6.8922,6.8915,6.8908,6.8902,6.9102,6.9116,6.913,6.9351,0,0,6.9173,6.918,0,0,0,0,0,0,0,0,6.8548,6.8574,6.8787,6.8789,6.879,6.8923,6.8915,6.9114,6.8923,6.8871,6.8907,6.8899,6.9053,6.9071,6.9122,6.9361,6.9369,6.9175,6.9183,6.919,6.9194,0,0,0,0,0,0,0,6.8535,6.8565,6.8873,6.879,6.8792,6.8775,6.8794,6.8952,6.8997,6.8875,6.8871,6.8894,6.9053,6.9108,6.9126,6.9372,6.9174,6.9187,6.9196,6.9201,6.9799,6.9806,0,0,0,0,0,0,6.852,6.8555,6.8867,6.8879,6.865,6.8788,6.881,6.8888,6.8995,6.9005,6.8899,6.889,6.9087,6.9109,6.9133,6.9396,6.9189,6.9203,6.9211,6.9792,6.98,6.9808,0,0,0,0,0,0,6.8512,6.8549,6.8859,6.8716,6.8754,6.8802,6.889,6.8895,6.895,6.9013,6.9021,6.8947,6.9082,6.9113,6.9296,6.9402,6.9209,6.9222,6.9783,6.9794,6.9804,6.9926,0,0,0,0,0,0,6.85,6.8546,6.863,6.8718,6.8762,6.9019,6.8897,6.8903,6.8974,6.8963,6.9061,6.907,6.908,6.9275,6.931,6.9418,6.9233,6.9774,6.9788,6.9801,6.9912,6.9939,6.9962,0,0,0,0,0,6.8485,6.8659,6.8635,6.8673,6.8868,6.9025,6.905,6.9056,6.8983,6.9068,6.9108,6.9067,6.9385,6.9295,6.9334,6.9447,6.9767,6.9784,6.98,6.9901,6.9934,6.9962,0,0,0,0,0,0,6.8585,6.867,6.8645,6.8852,6.8932,6.9012,6.912,6.9091,6.9194,6.918,6.9184,6.9207,6.9395,6.944,6.9338,6.9665,6.9565,6.959,6.9629,6.9661,6.9685,6.967,6.9245,0,0,0,0,0,6.8631,6.8751,6.8819,6.8996,6.9037,6.9072,6.9141,6.9138,6.9221,6.9255,6.9309,6.9392,6.951,6.9588,6.9701,6.9919,6.9938,7.0016,7.0041,7.0061,7.0082,7.0198,7.0232,6.9862,6.9862,6.9862,0,0,6.8728,6.8789,6.8865,6.9018,6.9079,6.9202,6.9101,6.9237,6.9329,6.9276,6.9451,6.9494,6.9587,6.9788,6.9879,6.9831,7.0189,7.0082,7.0098,7.0108,7.0218,7.0253,7.0284,6.9873,6.9871,6.987,0,0,6.8967,6.9027,6.9178,6.9241,6.9333,6.9355,6.9391,6.9476,6.9501,6.9677,6.9638,6.9749,6.9953,7.002,7.0081,7.0342,7.0308,7.0379,7.051,7.0622,7.0651,7.0677,7.0767,7.08,7.04,7.0401,7.0401,0,6.9076,6.926,6.926,6.9399,6.9466,6.9421,6.9574,6.9636,6.9762,6.9809,6.9753,7.0006,7.0066,7.028,7.0343,7.0395,7.0436,7.0368,7.0647,7.0673,7.0697,7.0783,7.0817,7.0409,7.0408,7.0407,7.0406,0,6.9388,6.9516,6.9628,6.9747,6.9827,6.9973,6.9995,7.0076,7.0066,7.0094,7.0272,7.0342,7.0466,7.0517,7.051,7.073,7.0696,7.0644,7.0543,7.074,7.082,7.0854,7.042,7.0417,7.0415,7.0413,0,0,6.9697,6.9811,6.9852,6.9904,7.0002,7.0101,7.0244,7.0363,7.0432,7.052,7.0639,7.0811,7.0762,7.0831,7.0831,7.093,7.1128,7.0865,7.0867,7.0909,7.1372,7.1408,7.1447,7.1107,7.1113,7.1118,7.1363,0,6.9941,7.0189,7.0192,7.0421,7.0537,7.0495,7.062,7.0693,7.0723,7.0827,7.086,7.098,7.0908,7.0949,7.1045,7.1084,7.1221,7.1067,7.1216,7.1222,7.1192,7.149,7.153,7.1758,7.1395,7.14,7.1404,0,7.026,7.0354,7.0593,7.067,7.0719,7.0831,7.0938,7.1039,7.1121,7.1135,7.1211,7.1195,7.134,7.1236,7.1435,7.133,7.1392,7.142,7.1429,7.1441,7.1323,7.1508,7.1831,7.1864,7.1455,7.1451,7.1447,0,7.0457,7.0644,7.081,7.0857,7.0952,7.1031,7.1074,7.115,7.122,7.1315,7.136,7.1472,7.1533,7.1619,7.1634,7.1557,7.1833,7.1731,7.1848,7.1848,7.1907,7.1903,7.2242,7.1951,7.1951,7.195,7.1949,0,7.0728,7.0876,7.0899,7.1002,7.1165,7.1167,7.1329,7.1367,7.1434,7.1542,7.1514,7.1617,7.1631,7.1737,7.175,7.1912,7.1941,7.1955,7.1956,7.1956,7.1954,7.1995,7.1979,7.1959,7.1957,7.1955,7.1954,0,7.0976,7.0998,7.1176,7.125,7.1272,7.1389,7.1453,7.155,7.1575,7.1713,7.1746,7.1786,7.191,7.1932,7.208,7.2088,7.228,7.2267,7.2251,7.2249,7.2363,7.2351,7.2739,7.2789,7.2468,7.2471,7.2474,0,7.1146,7.1258,7.1343,7.1412,7.1458,7.1572,7.1642,7.1649,7.1723,7.1823,7.1908,7.2028,7.2124,7.2323,7.2366,7.2478,7.2465,7.2594,7.2482,7.2477,7.2464,7.2456,7.2466,7.2614,7.2618,7.2621,7.2623,0,7.1446,7.145,7.1551,7.1656,7.174,7.1823,7.1903,7.1961,7.1978,7.2064,7.2188,7.2262,7.2409,7.2528,7.2639,7.2685,7.2657,7.2658,7.269,7.269,7.2675,7.2681,7.2306,7.2649,7.2646,7.2644,7.2643,7.2642,7.1658,7.1753,7.1827,7.194,7.1999,7.2073,7.2167,7.2202,7.2305,7.2424,7.2422,7.2558,7.2635,7.2779,7.2832,7.2939,7.2898,7.2946,7.2958,7.2969,7.2978,7.266,7.2959,7.2959,7.2958,7.2957,7.2957,0,7.1953,7.1997,7.2101,7.221,7.2299,7.2263,7.2348,7.2424,7.2543,7.2616,7.271,7.2851,7.2966,7.3017,7.3129,7.3204,7.3194,7.3233,7.3227,7.3237,7.3009,7.2968,7.3239,7.3239,7.3239,7.3239,7.3239,7.3239,7.2117,7.2275,7.2288,7.2475,7.2519,7.2649,7.27,7.2768,7.2825,7.2983,7.3077,7.3109,7.3173,7.3289,7.3392,7.3404,7.3446,7.349,7.3496,7.3282,7.3254,7.3226,7.3187,7.35,7.35,7.3715,7.3717,7.3718]},{"header":{"parameterUnit":"m.s-1","parameterCategory":1,"la1":30.2991,"la2":30.254,"lo1":-89.0895,"lo2":-89.0444,"dy":0.0017,"dx":0.0017,"nx":28,"ny":28,"refTime":"2024-06-27T03:00:00:Z","depth":0,"parameterNumber":3,"parameterNumberName":"V-component_of_WINDS"},"data":[0,0,0,0,0,0,0,0,0,0,0,0,0,0,0,0,0,0,0,0,0,0,0,0,0,0,0,0,0,0,0,0,0,0,0,0,0,0,0,0,0,0,0,0,0,0,0,0,0,0,0,0,0,0,0,0,0,0,2.134,2.134,0,2.1387,2.1387,2.1388,2.1369,2.1368,2.1366,2.1365,2.1412,2.1414,2.1417,0,0,0,0,0,0,0,0,0,0,0,0,0,2.1232,2.1234,2.134,2.134,2.1341,2.1387,2.1387,2.1388,2.1369,2.1368,2.1366,2.1365,2.1411,2.1414,2.1417,0,0,0,0,0,0,0,0,0,0,0,0,0,2.1279,2.1234,2.134,2.1337,2.1337,2.1387,2.1387,2.1388,2.1369,2.1367,2.1366,2.1364,2.1411,2.1414,2.1417,2.1472,0,0,2.1428,2.1429,0,0,0,0,0,0,0,0,2.1276,2.1283,2.1337,2.1337,2.1338,2.137,2.1366,2.1416,2.137,2.1357,2.1365,2.1363,2.14,2.1404,2.1416,2.1474,2.1476,2.1428,2.143,2.1432,2.1433,0,0,0,0,0,0,0,2.1273,2.128,2.1358,2.1338,2.1338,2.1333,2.1338,2.1376,2.1387,2.1358,2.1357,2.1363,2.1399,2.1413,2.1417,2.1477,2.1428,2.1431,2.1433,2.1434,2.1581,2.1583,0,0,0,0,0,0,2.127,2.1278,2.1357,2.136,2.1302,2.1336,2.1341,2.1361,2.1387,2.1389,2.1364,2.1361,2.1408,2.1413,2.1419,2.1484,2.1432,2.1435,2.1437,2.1579,2.1581,2.1583,0,0,0,0,0,0,2.1267,2.1277,2.1355,2.1319,2.1328,2.134,2.1362,2.1363,2.1377,2.1391,2.1393,2.1376,2.1407,2.1414,2.1459,2.1486,2.1436,2.1439,2.1577,2.158,2.1582,2.1616,0,0,0,0,0,0,2.1264,2.1276,2.1298,2.1319,2.133,2.1395,2.1364,2.1365,2.1383,2.138,2.1403,2.1405,2.1406,2.1454,2.1462,2.1489,2.1442,2.1575,2.1578,2.1581,2.1612,2.1619,2.1625,0,0,0,0,0,2.1261,2.1305,2.1299,2.1308,2.1357,2.1397,2.1403,2.1404,2.1385,2.1406,2.1415,2.1404,2.1481,2.1458,2.1468,2.1497,2.1573,2.1577,2.1581,2.161,2.1618,2.1625,0,0,0,0,0,0,2.1286,2.1308,2.1301,2.1354,2.1374,2.1393,2.142,2.1413,2.1438,2.1434,2.1433,2.1439,2.1485,2.1495,2.147,2.155,2.1524,2.153,2.1542,2.1551,2.1557,2.1554,2.1445,0,0,0,0,0,2.1298,2.1329,2.1346,2.139,2.1401,2.1409,2.1426,2.1425,2.1445,2.1453,2.1465,2.1485,2.1513,2.1532,2.1559,2.1613,2.1618,2.1637,2.1644,2.1649,2.1655,2.1684,2.1693,2.1597,2.1597,2.1597,0,0,2.1322,2.1338,2.1358,2.1396,2.1411,2.1442,2.1416,2.145,2.1473,2.1458,2.1502,2.1511,2.1533,2.1582,2.1605,2.1592,2.1682,2.1654,2.1659,2.1661,2.1689,2.1698,2.1706,2.16,2.1599,2.1599,0,0,2.1384,2.1399,2.1438,2.1453,2.1476,2.1481,2.1491,2.1511,2.1517,2.1561,2.155,2.1577,2.1626,2.1642,2.1656,2.1722,2.1713,2.1731,2.1765,2.1794,2.1801,2.1808,2.1832,2.184,2.1736,2.1736,2.1737,0,2.1411,2.1459,2.1459,2.1494,2.1511,2.1498,2.1538,2.1553,2.1583,2.1595,2.158,2.1642,2.1655,2.1708,2.1724,2.1736,2.1747,2.1729,2.18,2.1807,2.1813,2.1836,2.1845,2.1739,2.1738,2.1738,2.1738,0,2.1492,2.1525,2.1553,2.1584,2.1604,2.1641,2.1646,2.1666,2.1662,2.1669,2.1713,2.1728,2.1758,2.1771,2.1768,2.1823,2.1815,2.18,2.1774,2.1824,2.1846,2.1854,2.1742,2.1741,2.174,2.174,0,0,2.1572,2.1601,2.1611,2.1625,2.1649,2.1674,2.171,2.174,2.1757,2.1778,2.1808,2.185,2.1836,2.1853,2.1851,2.1876,2.1927,2.1858,2.1859,2.1871,2.1989,2.2001,2.2011,2.1921,2.1922,2.1923,2.1988,0,2.1635,2.1699,2.17,2.1758,2.1789,2.1777,2.1808,2.1826,2.1832,2.1858,2.1865,2.1894,2.1874,2.1884,2.1908,2.1916,2.1951,2.1911,2.1948,2.195,2.1945,2.2022,2.2035,2.2095,2.1996,2.1997,2.1999,0,2.1718,2.1743,2.1805,2.1824,2.1837,2.1865,2.1892,2.1917,2.1936,2.1939,2.1957,2.1952,2.1987,2.1959,2.2009,2.1982,2.1996,2.2003,2.2005,2.2009,2.1978,2.2029,2.2114,2.2123,2.2012,2.2011,2.201,0,2.1771,2.1819,2.1862,2.1874,2.1898,2.1918,2.1928,2.1946,2.1964,2.1987,2.1998,2.2025,2.204,2.206,2.2061,2.2041,2.2111,2.2083,2.2115,2.2115,2.2131,2.213,2.222,2.2139,2.2139,2.2139,2.2139,0,2.1843,2.1881,2.1886,2.1913,2.1955,2.1955,2.1996,2.2005,2.2021,2.2049,2.2039,2.2065,2.2065,2.2092,2.2093,2.2133,2.214,2.2143,2.2143,2.2145,2.2144,2.2155,2.2151,2.2141,2.2141,2.214,2.214,0,2.1909,2.1914,2.1961,2.1979,2.1984,2.2015,2.203,2.2055,2.206,2.2095,2.2104,2.2112,2.2142,2.2145,2.218,2.2181,2.223,2.2225,2.2224,2.2224,2.2255,2.2252,2.2356,2.2369,2.2279,2.228,2.228,0,2.1955,2.1984,2.2006,2.2024,2.2036,2.2065,2.2083,2.2083,2.2102,2.2126,2.2148,2.2177,2.2201,2.225,2.2258,2.2285,2.2281,2.2316,2.2285,2.2286,2.2283,2.2281,2.2284,2.2322,2.2323,2.2324,2.2324,0,2.2036,2.2037,2.2063,2.2091,2.2112,2.2134,2.2153,2.2169,2.2171,2.2192,2.2224,2.2242,2.2278,2.2307,2.2333,2.2343,2.2334,2.2334,2.2342,2.2345,2.2343,2.2345,2.2241,2.2331,2.2331,2.233,2.233,2.233,2.2094,2.2119,2.2139,2.2168,2.2183,2.2202,2.2226,2.2234,2.2261,2.229,2.2288,2.2323,2.234,2.2375,2.2387,2.2413,2.2402,2.2414,2.2417,2.2421,2.2424,2.2338,2.2418,2.2417,2.2417,2.2417,2.2417,0,2.2175,2.2186,2.2214,2.2242,2.2265,2.2254,2.2276,2.2296,2.2326,2.2344,2.2367,2.2403,2.2431,2.2441,2.2469,2.2488,2.2484,2.2495,2.2494,2.2497,2.2433,2.2423,2.2498,2.2498,2.2498,2.2498,2.2498,2.2498,2.222,2.2262,2.2265,2.2315,2.2326,2.236,2.2373,2.239,2.2404,2.2445,2.2468,2.2475,2.2489,2.2518,2.2543,2.2545,2.2556,2.2568,2.2569,2.2509,2.2501,2.2494,2.2484,2.2571,2.2571,2.2631,2.2631,2.2632]}]]